TimeMDT,TemperatureF,Dew PointF,Humidity,Sea Level PressureIn,VisibilityMPH,Wind Direction,Wind SpeedMPH,Gust SpeedMPH,PrecipitationIn,Events,Conditions,WindDirDegrees,DateUTC
12:15 AM,51.8,30.2,44,30.59,10.0,West,4.6,-,N/A,,Overcast,280,2013-08-07 06:15:00
12:35 AM,51.8,32.0,47,30.58,10.0,West,5.8,-,N/A,,Overcast,270,2013-08-07 06:35:00
12:55 AM,51.8,32.0,47,30.58,10.0,WNW,4.6,-,N/A,,Overcast,290,2013-08-07 06:55:00
1:15 AM,53.6,32.0,44,30.58,10.0,SSE,5.8,-,N/A,,Overcast,160,2013-08-07 07:15:00
1:35 AM,53.6,32.0,44,30.57,10.0,South,5.8,-,N/A,,Overcast,180,2013-08-07 07:35:00
1:55 AM,51.8,30.2,44,30.57,10.0,WNW,4.6,-,N/A,,Overcast,290,2013-08-07 07:55:00
2:15 AM,51.8,30.2,44,30.56,10.0,West,4.6,-,N/A,,Scattered Clouds,280,2013-08-07 08:15:00
2:35 AM,50.0,30.2,47,30.55,10.0,WNW,4.6,-,N/A,,Scattered Clouds,300,2013-08-07 08:35:00
2:55 AM,51.8,32.0,47,30.55,10.0,West,5.8,-,N/A,,Scattered Clouds,270,2013-08-07 08:55:00
3:15 AM,51.8,32.0,47,30.55,10.0,East,3.5,-,N/A,,Mostly Cloudy,100,2013-08-07 09:15:00
3:35 AM,51.8,32.0,47,30.54,10.0,SSE,6.9,-,N/A,,Overcast,150,2013-08-07 09:35:00
3:55 AM,50.0,32.0,50,30.55,10.0,SSE,5.8,-,N/A,,Overcast,160,2013-08-07 09:55:00
4:15 AM,51.8,32.0,47,30.55,10.0,WNW,3.5,-,N/A,,Overcast,300,2013-08-07 10:15:00
4:35 AM,50.0,32.0,50,30.54,10.0,SSE,5.8,-,N/A,,Overcast,160,2013-08-07 10:35:00
4:55 AM,50.0,32.0,50,30.54,10.0,SE,3.5,-,N/A,,Overcast,130,2013-08-07 10:55:00
5:15 AM,46.4,32.0,57,30.54,10.0,West,3.5,-,N/A,,Overcast,280,2013-08-07 11:15:00
5:35 AM,48.2,32.0,54,30.54,10.0,South,6.9,-,N/A,,Overcast,170,2013-08-07 11:35:00
5:55 AM,48.2,32.0,54,30.55,10.0,South,4.6,-,N/A,,Overcast,190,2013-08-07 11:55:00
6:15 AM,46.4,33.8,62,30.56,10.0,SSE,6.9,-,N/A,,Drizzle,160,2013-08-07 12:15:00
6:35 AM,46.4,35.6,66,30.56,10.0,South,10.4,-,N/A,,Drizzle,170,2013-08-07 12:35:00
6:55 AM,46.4,37.4,71,30.56,10.0,ESE,6.9,-,0.01,,Drizzle,110,2013-08-07 12:55:00
7:15 AM,46.4,35.6,66,30.55,10.0,SSE,9.2,-,0.01,Rain,Light Rain,150,2013-08-07 13:15:00
7:35 AM,46.4,37.4,71,30.56,10.0,SE,8.1,-,0.01,Rain,Light Rain,130,2013-08-07 13:35:00
7:55 AM,46.4,37.4,71,30.56,10.0,ESE,6.9,-,0.01,,Light Drizzle,120,2013-08-07 13:55:00
8:15 AM,46.4,35.6,66,30.56,10.0,SSE,6.9,-,N/A,,Overcast,150,2013-08-07 14:15:00
8:35 AM,46.4,35.6,66,30.56,10.0,East,8.1,-,N/A,,Overcast,100,2013-08-07 14:35:00
8:55 AM,46.4,33.8,62,30.57,10.0,East,6.9,18.4,N/A,,Overcast,100,2013-08-07 14:55:00
9:15 AM,44.6,35.6,71,30.58,10.0,ENE,11.5,-,0.01,Rain,Light Rain,70,2013-08-07 15:15:00
9:35 AM,44.6,35.6,71,30.59,10.0,ENE,12.7,18.4,0.02,Rain,Rain,70,2013-08-07 15:35:00
9:55 AM,44.6,37.4,76,30.59,3.0,SSE,11.5,-,0.02,,Drizzle,150,2013-08-07 15:55:00
10:15 AM,44.6,37.4,76,30.59,10.0,SSE,10.4,-,N/A,,Light Drizzle,160,2013-08-07 16:15:00
10:35 AM,44.6,35.6,71,30.60,10.0,NNW,4.6,-,0.01,Rain,Light Rain,340,2013-08-07 16:35:00
10:55 AM,44.6,35.6,71,30.60,7.0,North,8.1,-,0.03,Rain,Light Rain,10,2013-08-07 16:55:00
11:15 AM,44.6,35.6,71,30.59,5.0,WNW,4.6,-,0.02,Rain,Rain,290,2013-08-07 17:15:00
11:35 AM,44.6,35.6,71,30.59,10.0,WNW,5.8,23.0,0.04,Rain,Light Rain,290,2013-08-07 17:35:00
11:55 AM,44.6,35.6,71,30.59,7.0,NW,5.8,-,0.05,Rain,Light Rain,320,2013-08-07 17:55:00
12:15 PM,44.6,35.6,71,30.59,10.0,WSW,4.6,-,N/A,Thunderstorm,Drizzle,250,2013-08-07 18:15:00
12:35 PM,44.6,35.6,71,30.60,7.0,SSW,5.8,-,0.02,Rain,Light Rain,200,2013-08-07 18:35:00
12:55 PM,44.6,35.6,71,30.60,5.0,West,6.9,-,0.04,Rain,Light Rain,270,2013-08-07 18:55:00
1:15 PM,44.6,35.6,71,30.59,7.0,WNW,8.1,-,0.01,Rain,Light Rain,290,2013-08-07 19:15:00
1:35 PM,44.6,35.6,71,30.59,7.0,West,11.5,18.4,0.03,Rain-Thunderstorm,Light Thunderstorms and Rain,280,2013-08-07 19:35:00
1:55 PM,44.6,37.4,76,30.59,10.0,WNW,11.5,17.3,0.03,Rain,Light Rain,290,2013-08-07 19:55:00
2:15 PM,44.6,35.6,71,30.59,10.0,West,5.8,-,N/A,,Overcast,270,2013-08-07 20:15:00
2:35 PM,44.6,35.6,71,30.58,10.0,West,8.1,-,N/A,,Overcast,270,2013-08-07 20:35:00
2:55 PM,50.0,39.2,66,30.57,10.0,WNW,5.8,-,N/A,,Overcast,290,2013-08-07 20:55:00
3:15 PM,53.6,39.2,58,30.56,10.0,West,6.9,-,N/A,,Overcast,280,2013-08-07 21:15:00
3:35 PM,51.8,37.4,58,30.55,10.0,West,10.4,16.1,N/A,,Mostly Cloudy,270,2013-08-07 21:35:00
3:55 PM,53.6,39.2,58,30.55,10.0,West,5.8,-,N/A,,Mostly Cloudy,280,2013-08-07 21:55:00
4:15 PM,53.6,39.2,58,30.54,10.0,WNW,4.6,-,N/A,,Mostly Cloudy,300,2013-08-07 22:15:00
4:35 PM,53.6,37.4,54,30.54,10.0,WSW,3.5,-,N/A,,Overcast,250,2013-08-07 22:35:00
4:55 PM,53.6,37.4,54,30.53,10.0,East,6.9,-,N/A,,Overcast,80,2013-08-07 22:55:00
5:15 PM,53.6,35.6,51,30.53,10.0,NNW,3.5,-,N/A,,Overcast,330,2013-08-07 23:15:00
5:35 PM,53.6,35.6,51,30.54,10.0,NW,4.6,-,N/A,,Overcast,320,2013-08-07 23:35:00
5:51 PM,53.6,35.6,51,30.54,10.0,WNW,5.8,-,N/A,,Mostly Cloudy,300,2013-08-07 23:51:00
7:15 PM,53.6,35.6,51,30.53,10.0,West,11.5,-,N/A,,Mostly Cloudy,280,2013-08-08 01:15:00
7:35 PM,51.8,33.8,50,30.53,10.0,West,13.8,-,N/A,,Scattered Clouds,280,2013-08-08 01:35:00
7:55 PM,51.8,33.8,50,30.52,10.0,West,12.7,-,N/A,,Mostly Cloudy,270,2013-08-08 01:55:00
8:15 PM,50.0,33.8,54,30.52,10.0,West,15.0,-,N/A,,Mostly Cloudy,260,2013-08-08 02:15:00
8:35 PM,48.2,32.0,54,30.52,10.0,West,10.4,-,N/A,,Scattered Clouds,260,2013-08-08 02:35:00
8:55 PM,50.0,32.0,50,30.52,10.0,West,9.2,-,N/A,,Scattered Clouds,270,2013-08-08 02:55:00
9:15 PM,50.0,32.0,50,30.53,10.0,West,10.4,-,N/A,,Scattered Clouds,260,2013-08-08 03:15:00
9:35 PM,48.2,32.0,54,30.54,10.0,West,15.0,-,N/A,,Clear,270,2013-08-08 03:35:00
9:55 PM,46.4,32.0,57,30.54,10.0,West,6.9,-,N/A,,Clear,260,2013-08-08 03:55:00
10:15 PM,46.4,33.8,62,30.54,10.0,South,8.1,-,N/A,,Clear,180,2013-08-08 04:15:00
10:35 PM,46.4,33.8,62,30.53,10.0,West,6.9,-,N/A,,Scattered Clouds,260,2013-08-08 04:35:00
10:55 PM,46.4,32.0,57,30.53,10.0,WSW,3.5,-,N/A,,Clear,240,2013-08-08 04:55:00
11:15 PM,46.4,33.8,62,30.52,10.0,South,5.8,-,N/A,,Clear,180,2013-08-08 05:15:00
11:35 PM,46.4,32.0,57,30.52,10.0,South,5.8,-,N/A,,Clear,190,2013-08-08 05:35:00
11:55 PM,50.0,30.2,47,30.52,10.0,West,6.9,-,N/A,,Clear,270,2013-08-08 05:55:00